Tracking 28790 objects as of 19-Apr-2024
HD Live streaming from Space Station
objects crossing your sky now

COSMOS 1375 DEB

Track COSMOS 1375 DEB now!
10-day predictions


NORAD ID: 18507
Int'l Code: 1982-055BG
Perigee: 994.6 km
Apogee: 1,045.9 km
Inclination: 65.8 °
Period: 105.4 minutes
Semi major axis: 7391 km
RCS: 0.1783 m2 (medium)
Launch date: June 6, 1982
Source: Commonwealth of Independent States (former USSR) (CIS)
Launch site: PLESETSK MISSILE AND SPACE COMPLEX (PKMTR)

Note: This is SATELLITE DEBRIS
Your satellite tracking list
Your tracking list is empty




NASA's NSSDC Master Catalog

Two Line Element Set (TLE):
1 18507U 82055BG  24109.87413192 -.00000003  00000-0  91149-4 0  9994
2 18507  65.8360 349.3592 0034653  91.8705 346.8437 13.66234066 89253
Source of the keplerian elements: AFSPC